Location: Centerville
(32.8776°N, 96.6203°W)
Time: 00:43:36
(UTC+00:00)

Cosmos 1844 Rocket - Pass Details

Date: 17 June 2021
Orbit: 823 x 846 km, 71.0° (Epoch: 01 August)

Event Time Altitude Azimuth Distance (km) Brightness Sun altitude
Rises 05:08:55 0° 330° (NNW) 3,407 7.0 -30.7°
Reaches altitude 10° 05:11:29 10° 323° (NW) 2,469 5.9 -30.9°
Enters shadow 05:16:00 38° 274° (W) 1,270 3.7 -31.2°
